Regional Weather Roundup
Issued by NWS

Home | Current Version | Previous Version | Text Only | Print | Product List | Glossary On
Versions: 1 2 3 4 5 6 7 8 9 10 11 12 13 14 15 16 17 18 19 20 21 22 23 24 25 26 27 28 29 30 31 32 33 34 35 36 37 38 39 40 41 42 43 44 45 46 47 48 49 50
000
ASUS43 KDMX 221901
RWRIA

WEATHER ROUNDUP FOR IOWA
NATIONAL WEATHER SERVICE DES MOINES IA
200 PM CDT THU JUN 22 2017

NOTE: "FAIR" INDICATES FEW OR NO CLOUDS BELOW 12,000 FEET WITH NO
SIGNIFICANT WEATHER AND/OR OBSTRUCTIONS TO VISIBILITY.

* - THESE STATIONS ARE NOT NWS STATIONS...THUS NOT UNDER NWS
QUALITY CONTROL.  THEY ALSO DO NOT REPORT WEATHER SUCH
AS PRECIPITATION OR FOG.

IAZ001>003-012>014-020>022-031>034-043>046-222000-
   NORTHWEST IOWA

CITY           SKY/WX    TMP DP  RH WIND       PRES   REMARKS
CARROLL *      CLOUDY    88  66  48 S10G18    29.65F HX  90
CHEROKEE *     CLOUDY    79  65  63 NE8G16    29.69S HX  81
DENISON *      CLOUDY    86  66  51 SW6G15    29.66F HX  88
LE MARS *      CLOUDY    82  63  51 NE20      29.69S HX  83
ORANGE CITY *  CLOUDY    77  63  61 E7        29.72R
SHELDON *      CLOUDY    77  63  61 E9G16     29.70S
SIOUX CITY     LGT RAIN  85  68  56 NE12G21   29.65S HX  88
SPENCER        CLOUDY    79  60  52 E23       29.70S HX  80
STORM LAKE *   CLOUDY    79  66  65 N9        29.69S HX  81
$$

IAZ055>058-069>071-079>083-090>094-222000-
   SOUTHWEST IOWA

CITY           SKY/WX    TMP DP  RH WIND       PRES   REMARKS
ATLANTIC *     SUNNY     82  68  61 S15       29.66F HX  85
AUDUBON *      SUNNY     84  68  58 S13G22    29.67F HX  87
CLARINDA *     CLOUDY    84  70  61 S16G23    29.68F HX  88
COUNCIL BLFS * CLOUDY    86  70  58 S7G16     29.66F HAZE    HX  90
CRESTON *      CLOUDY    75  68  78 SE18G24   29.69F
HARLAN  *      CLOUDY    84  68  58 SW10G20   29.70S HX  87
LAMONI         CLOUDY    81  69  67 S8        29.73S HX  84
RED OAK *      SUNNY     84  70  61 S15G22    29.67S HX  88
SHENANDOAH *   SUNNY     86  70  58 S15G22    29.65F HX  90
$$

IAZ047>049-059>061-072>074-084-222000-
   CENTRAL IOWA

CITY           SKY/WX    TMP DP  RH WIND       PRES   REMARKS
AMES           PTSUNNY   83  69  62 S15G22    29.68F HX  86
ANKENY *       CLOUDY    82  70  65 S8        29.69F HX  86
BOONE *        MOSUNNY   84  70  61 VRB7G15   29.68S HX  88
CHARITON *     MOSUNNY   86  68  54 S12G18    29.72F HX  89
DES MOINES     CLOUDY    83  70  64 S10       29.69F HX  87
GRINNELL*      HVY RAIN  78  69  74 S12       29.71F
KNOXVILLE *    CLOUDY    84  68  58 S15       29.69F HX  87
MARSHALLTOWN   CLOUDY    78  71  79 S12       29.69F HX  80
NEWTON *       CLOUDY    75  70  83 S7        29.69F
PELLA *        CLOUDY    84  68  59 S8        29.71F HX  87
PERRY *          N/A     86  64  47 S13       29.67F HX  87
$$

IAZ004>006-015-016-023>025-035-036-222000-
   NORTH CENTRAL IOWA

CITY           SKY/WX    TMP DP  RH WIND       PRES   REMARKS
ALGONA *       CLOUDY    75  66  73 NE8       29.71R
CLARION *        N/A     82  70  65 S13       29.68F HX  86
ESTHERVILLE    CLOUDY    76  64  66 SE20      29.70R
FORT DODGE *   CLOUDY    84  64  51 S12G17    29.67F HX  86
MASON CITY     CLOUDY    73  68  84 NE8       29.72F
FOREST CITY *  CLOUDY    73  61  64 E3        29.71F
WEBSTER CITY * PTSUNNY   81  70  69 SE9       29.65F HX  84
IOWA FALLS *     N/A     83  67  59 S10       29.71F HX  85
$$

IAZ007>011-017>019-026>030-037>042-050>054-066-222000-
   NORTHEAST IOWA

CITY           SKY/WX    TMP DP  RH WIND       PRES   REMARKS
CEDAR RAPIDS   CLOUDY    80  72  76 S13       29.71F HX  84
CHARLES CITY * CLOUDY    79  72  78 S8G15     29.73S HX  82
CLINTON *      CLOUDY    83  71  67 S8        29.77F HX  87
DECORAH *      CLOUDY    75  68  78 S8        29.73F
DUBUQUE        CLOUDY    81  69  67 S18       29.74F HX  84
MONTICELLO *   CLOUDY    79  70  73 S17G24    29.71F HX  81
OELWEIN *      PTSUNNY   77  72  83 S14       29.74S
WATERLOO       CLOUDY    79  68  69 S9        29.71S HX  81
$$

IAZ064-065-067-068-078-222000-
   EAST CENTRAL IOWA

CITY           SKY/WX    TMP DP  RH WIND       PRES   REMARKS
DAVENPORT      PTSUNNY   84  69  60 S9        29.77S HX  88
IOWA CITY      PTSUNNY   86  70  58 S8        29.75F HX  90
MT. PLEASANT * MOSUNNY   87  68  52 S12G17    29.75S HX  90
MUSCATINE *    PTSUNNY   88  70  55 S12       29.75S HX  92
QUAD CITIES    MOSUNNY   87  71  58 S8        29.75S HX  93
$$

IAZ062-063-075>077-085>089-095>099-222000-
   SOUTHEAST IOWA

CITY           SKY/WX    TMP DP  RH WIND       PRES   REMARKS
BURLINGTON     PTSUNNY   84  72  67 S18       29.76F HX  89
FAIRFIELD *    PTSUNNY   88  68  51 S10G16    29.74S HX  91
FORT MADISON * PTSUNNY   84  72  65 S12       29.77S HX  89
KEOKUK *       CLOUDY    84  72  65 S9G18     29.76S HX  89
OSKALOOSA *      N/A     87  69  54 SW8       29.73F HX  91
OTTUMWA        SUNNY     88  69  53 SW10      29.73F HX  92
WASHINGTON *   PTSUNNY   86  72  62 S9        29.76S HX  92
$$

ABBREVIATIONS USED IN REMARKS
   TC - TEMPERATURES IN CELSIUS
  WCI - WIND CHILL INDEX
   HX - HEAT INDEX
  VSB - VISIBILITY
$$




USA.gov is the U.S. government's official web portal to all federal, state and local government web resources and services.